Inquirer Daily News

Weather

Get conditions and forecasts for any City, State, ZIP code or Country:  
Northeast Philadelphia, PA
on Saturday, February 2, 2013

Saturday
Previous Day Next Day
Daily Summary
 ActualAverage (KTTN)Record (KTTN)
Temperature
Mean Temperature °F 32°F  
Max Temperature 30°F 40°F 61°F (1973)
Min Temperature 17°F 24°F -4°F (1881)
Degree Days
Heating Degree Days 42 33  
Month to date heating degree days 66  
Since 1 July heating degree days 3012  
Cooling Degree Days 0 0  
Month to date cooling degree days 0  
Year to date cooling degree days 0  
Moisture
Dew Point 12°F   
Average Humidity 62    
Maximum Humidity 88    
Minimum Humidity 35    
Precipitation
Precipitation 0.05 in 0.08 in 2.49 in (1973)
Month to date precipitation 0.15  
Year to date precipitation 3.31  
Wind
Wind Speed 8 mph   
Max Wind Speed 14 mph   
Max Gust Speed 21 mph   
Visibility 7 miles   
Events Snow   

Key: T is trace of precipitation, MM is missing value
Source: NWS Daily Summary
Time(EST)TemperatureDew PointHumidity Pressure Visibility Wind DirectionWind SpeedGust SpeedPrecipitationEvents Conditions
12:54 AM 19.9°F 5.0°F 52% 30.32 in 10.0 miles West 11.5 mph - N/A   Clear
1:54 AM 19.9°F 5.0°F 52% 30.34 in 10.0 miles WNW 8.1 mph - N/A   Clear
2:54 AM 19.0°F 6.1°F 57% 30.35 in 10.0 miles West 10.4 mph - N/A   Clear
3:54 AM 19.0°F 3.9°F 52% 30.33 in 10.0 miles WNW 10.4 mph - N/A   Clear
4:54 AM 18.0°F 3.0°F 52% 30.33 in 10.0 miles Variable 3.5 mph - N/A   Clear
5:54 AM 17.1°F 3.9°F 56% 30.34 in 10.0 miles West 5.8 mph - N/A   Clear
6:54 AM 17.6°F 3.2°F 53% 30.34 in 10.0 miles West 5.8 mph - N/A   Clear
7:54 AM 19.0°F 3.9°F 52% 30.35 in 10.0 miles West 4.6 mph - N/A   Clear
8:54 AM 21.0°F 3.9°F 48% 30.35 in 10.0 miles West 9.2 mph - N/A   Clear
9:54 AM 23.0°F 3.9°F 44% 30.32 in 10.0 miles SW 9.2 mph - N/A   Clear
10:54 AM 25.0°F 5.0°F 43% 30.30 in 10.0 miles SW 9.2 mph - N/A   Clear
11:54 AM 26.1°F 5.0°F 41% 30.27 in 10.0 miles WSW 11.5 mph - N/A   Clear
12:54 PM 28.0°F 5.0°F 38% 30.23 in 10.0 miles SW 9.2 mph 20.7 mph N/A   Clear
1:54 PM 30.0°F 5.0°F 35% 30.20 in 10.0 miles West 13.8 mph - N/A   Clear
2:54 PM 28.9°F 6.1°F 38% 30.17 in 10.0 miles SW 11.5 mph 17.3 mph N/A   Partly Cloudy
3:54 PM 28.9°F 8.1°F 41% 30.16 in 10.0 miles SW 11.5 mph 17.3 mph N/A   Overcast
4:54 PM 28.0°F 8.1°F 43% 30.14 in 10.0 miles SW 10.4 mph - N/A   Overcast
5:54 PM 28.0°F 9.0°F 45% 30.13 in 10.0 miles WSW 13.8 mph 18.4 mph N/A   Overcast
6:54 PM 27.0°F 10.9°F 51% 30.12 in 10.0 miles SW 12.7 mph - N/A   Overcast
7:54 PM 26.1°F 16.0°F 66% 30.13 in 8.0 miles SSW 10.4 mph - N/A   Overcast
8:42 PM 24.8°F 19.4°F 80% 30.12 in 2.5 miles SW 5.8 mph - 0.00 in Snow Light Snow
8:51 PM 24.8°F 19.4°F 80% 30.12 in 2.0 miles SSW 3.5 mph - 0.01 in Snow Light Snow
8:54 PM 25.0°F 21.0°F 85% 30.13 in 2.0 miles SSW 3.5 mph - 0.01 in Snow Light Snow
9:01 PM 24.8°F 21.2°F 86% 30.12 in 1.8 miles SW 5.8 mph - 0.00 in Snow Light Snow
9:54 PM 25.0°F 21.0°F 85% 30.11 in 2.5 miles South 4.6 mph - 0.02 in Snow Light Snow
10:16 PM 24.8°F 21.2°F 86% 30.10 in 1.8 miles Calm Calm - 0.00 in Snow Light Snow
10:29 PM 24.8°F 21.2°F 86% 30.09 in 2.5 miles South 4.6 mph - 0.00 in Snow Light Snow
10:47 PM 24.8°F 21.2°F 86% 30.08 in 2.0 miles Calm Calm - 0.01 in Snow Light Snow
10:54 PM 25.0°F 21.9°F 88% 30.09 in 2.0 miles Calm Calm - 0.01 in Snow Light Snow
11:13 PM 24.8°F 21.2°F 86% 30.08 in 3.0 miles Calm Calm - 0.00 in Snow Light Snow
11:40 PM 24.8°F 21.2°F 86% 30.06 in 2.5 miles Calm Calm - 0.00 in Snow Light Snow
11:54 PM 25.0°F 21.9°F 88% 30.07 in 2.5 miles Calm Calm - 0.01 in Snow Light Snow
Astronomy
Sunrise:07:07 AM (EST) Moon Rise:No Moon Rise/
Sunset:05:20 PM (EST) Moon Set:10:16 AM (EST)2/2
Moon Phase
Feb. 02 Feb. 03 Feb. 10 Feb. 17 Feb. 25

Copyright © 2014 The Weather Underground, Inc.